This is the latest recevied weather packets stored in our database for station/object KC9EGS. If no packets are shown the sender has not sent any weather packets the latest 10 day(s).
| Time | Temp. | Humidity | Pressure | Rain* | Wind** | Luminosity | Snow |
|---|---|---|---|---|---|---|---|
| 1777890316 | 10.56° C | 48% | 990.4 hPa | 0 mm | - | - | - |
| 1777889720 | 10.56° C | 48% | 990.4 hPa | 0 mm | - | - | - |
| 1777889414 | 10.56° C | 47% | 990.9 hPa | 0 mm | - | - | - |
| 1777888514 | 10.56° C | 47% | 991 hPa | 0 mm | - | - | - |
| 1777887920 | 10.56° C | 47% | 991 hPa | 0 mm | - | - | - |
| 1777887615 | 10.56° C | 49% | 991.5 hPa | 0 mm | - | - | - |
| 1777887320 | 10.56° C | 46% | 991.5 hPa | 0 mm | - | - | - |
| 1777886714 | 10.56° C | 48% | 991.9 hPa | 0 mm | - | - | - |
| 1777886119 | 10.56° C | 46% | 991.9 hPa | 0 mm | - | - | - |
| 1777885814 | 10.56° C | 47% | 992.1 hPa | 0 mm | - | - | - |
| 1777885521 | 10.56° C | 46% | 992.1 hPa | 0 mm | - | - | - |
| 1777884914 | 10.56° C | 46% | 992.3 hPa | 0 mm | - | - | - |
| 1777884321 | 10.56° C | 45% | 992.3 hPa | 0 mm | - | - | - |
| 1777884015 | 10.56° C | 45% | 992.6 hPa | 0 mm | - | - | - |
| 1777883719 | 10.56° C | 46% | 992.6 hPa | 0 mm | - | - | - |
| 1777883114 | 10.56° C | 46% | 992.7 hPa | 0 mm | - | - | - |
| 1777882520 | 10.56° C | 45% | 992.7 hPa | 0 mm | - | - | - |
| 1777882215 | 10.56° C | 45% | 993.1 hPa | 0 mm | - | - | - |
| 1777881919 | 10.56° C | 45% | 993.1 hPa | 0 mm | - | - | - |
| 1777881316 | 10.56° C | 44% | 993.2 hPa | 0 mm | - | - | - |
| 1777880720 | 11.11° C | 44% | 993.2 hPa | 0 mm | - | - | - |
| 1777880414 | 11.11° C | 45% | 993.5 hPa | 0 mm | - | - | - |
| 1777880119 | 11.11° C | 45% | 993.5 hPa | 0 mm | - | - | - |
| 1777879514 | 11.11° C | 43% | 993.7 hPa | 0 mm | - | - | - |
| 1777878921 | 10.56° C | 43% | 993.7 hPa | 0 mm | - | - | - |
* Rain latest hour (hover to see other rain measurements)
** Current wind speed in m/s (hover to see current wind gust speed)